DW1590 Weather Reports


time (UTC)temp
F
wind
direction
speed
knots
gust
knots
rain 1hr
in
rain 24hr
in
rain mn
in
humidity
%
barometer
mb
20260505053109 63 217 2.6 0.0 0.00 0.00 0.00 61 1010.2
20260505051553 63 202 1.7 0.0 0.00 0.00 0.00 61 1010.2
20260505041609 64 175 1.7 0.0 0.00 0.00 0.00 60 1010.0
20260505040047 64 193 1.7 0.0 0.00 0.00 0.00 59 1010.1
20260505034545 65 195 1.7 0.0 0.00 0.00 0.00 58 1010.0
20260505033039 66 196 2.6 0.0 0.00 0.00 0.00 57 1010.0
20260505031534 65 196 1.7 0.0 0.00 0.00 0.00 57 1009.9
20260505030030 65 187 1.7 0.0 0.00 0.00 0.00 56 1009.8
20260505024538 66 188 1.7 0.0 0.00 0.00 0.00 56 1009.9
20260505023021 66 199 1.7 0.0 0.00 0.00 0.00 55 1010.0
20260505021518 66 187 0.9 0.0 0.00 0.00 0.00 54 1009.8
20260505020014 66 193 0.9 0.0 0.00 0.00 0.00 54 1009.8
20260505014508 66 186 0.9 0.0 0.00 0.00 0.00 53 1009.7
20260505013013 67 165 0.9 0.0 0.00 0.00 0.00 52 1009.2
20260505011600 67 203 0.9 0.0 0.00 0.00 0.00 52 1009.3
20260505010055 68 187 0.0 0.0 0.00 0.00 0.00 51 1009.2
20260505004551 69 184 0.9 0.0 0.00 0.00 0.00 49 1009.2
20260505003046 70 196 0.0 0.0 0.00 0.00 0.00 47 1009.0
20260505001550 71 187 1.7 0.0 0.00 0.00 0.00 45 1009.1
20260505000042 71 202 1.7 0.0 0.00 0.00 0.00 45 1008.9
20260504234533 72 208 3.5 0.0 0.00 0.00 0.00 44 1009.0
20260504233029 72 167 2.6 0.0 0.00 0.00 0.00 44 1009.0
20260504231530 72 121 1.7 0.0 0.00 0.00 0.00 43 1008.9
20260504230020 73 176 3.5 0.0 0.00 0.00 0.00 42 1009.0
20260504224517 73 131 6.1 0.0 0.00 0.00 0.00 41 1009.0
20260504223011 75 200 4.3 0.0 0.00 0.00 0.00 41 1008.9
20260504221507 75 215 3.5 0.0 0.00 0.00 0.00 40 1008.7
20260504220009 75 157 4.3 0.0 0.00 0.00 0.00 40 1008.7
20260504214558 74 122 2.6 0.0 0.00 0.00 0.00 39 1008.9
20260504213054 76 167 3.5 0.0 0.00 0.00 0.00 37 1008.9
20260504211552 76 92 3.5 0.0 0.00 0.00 0.00 38 1008.9
20260504204548 75 194 4.3 0.0 0.00 0.00 0.00 39 1009.0
20260504203043 75 133 5.2 0.0 0.00 0.00 0.00 39 1009.1
20260504201532 75 241 4.3 0.0 0.00 0.00 0.00 38 1009.3
20260504200028 75 148 3.5 0.0 0.00 0.00 0.00 38 1009.6
20260504194536 75 224 3.5 0.0 0.00 0.00 0.00 40 1009.7
20260504193020 75 206 2.6 0.0 0.00 0.00 0.00 39 1010.0
20260504191514 75 110 1.7 0.0 0.00 0.00 0.00 41 1010.2
20260504190010 74 180 4.3 0.0 0.00 0.00 0.00 40 1010.5
20260504184510 73 198 3.5 0.0 0.00 0.00 0.00 41 1010.9
20260504183002 73 167 4.3 0.0 0.00 0.00 0.00 40 1011.0
20260504181603 72 92 4.3 0.0 0.00 0.00 0.00 41 1011.1
20260504180143 72 132 2.6 0.0 0.00 0.00 0.00 40 1011.3
20260504174550 73 169 3.5 0.0 0.00 0.00 0.00 40 1011.7
20260504173056 71 213 3.5 0.0 0.00 0.00 0.00 41 1011.7
20260504171540 71 244 3.5 0.0 0.00 0.00 0.00 39 1012.0
20260504081501 47 225 0.0 0.0 0.00 0.00 0.00 17 1014.9